Simultaneous Nadir Overpasses (SNOs) Predictions

Prediction of SNOs between NOAA-19 and NPP Satellite Orbit:

Table of predicted SNOs for the next 14.0 days since TLE Epoch: 6/12/2020
Index Date (NOAA-19) Time (NOAA-19) Lat,Lon (NOAA-19) SZA (NOAA-19 ) Date (NPP) Time (NPP) Lat,Lon (NPP) SZA (NPP ) Distance(km) Time Diff (sec)
1 06/18/2020 22:06:37 -79.28, -4.66 122.27 06/18/2020 22:07:45 -79.29, -4.62 122.30 0.94 68
2 06/18/2020 22:57:34 79.30, 162.76 57.73 06/18/2020 22:58:30 79.28, 162.77 57.69 2.54 56
3 06/18/2020 23:48:37 -79.30, -29.99 122.27 06/18/2020 23:49:15 -79.29, -30.02 122.30 1.24 38
4 06/19/2020 00:39:35 79.29, 137.14 57.73 06/19/2020 00:40:01 79.32, 137.10 57.75 3.30 26
5 06/19/2020 01:30:37 -79.32, -55.33 122.28 06/19/2020 01:30:45 -79.30, -55.43 122.29 3.31 8
6 06/19/2020 02:21:35 79.30, 111.80 57.73 06/19/2020 02:21:31 79.32, 111.69 57.76 2.81 4
7 06/19/2020 03:12:38 -79.31, -80.94 122.28 06/19/2020 03:12:15 -79.30, -80.84 122.28 2.28 23
8 06/19/2020 04:03:34 79.32, 86.46 57.73 06/19/2020 04:03:00 79.32, 86.29 57.76 3.63 34
9 06/19/2020 04:54:37 -79.32,-106.28 122.28 06/19/2020 04:53:44 -79.30,-106.24 122.28 2.42 53
10 06/19/2020 05:45:35 79.31, 60.85 57.73 06/19/2020 05:44:30 79.33, 60.88 57.77 2.20 65




NCC Satellite Simultaneous Nadir Overpasses (SNOs) Prediction Service
